Location: Rumah Geringgi
(3.1667°N, 113.1667°E)
Time: 20:30:00
(UTC+00:00)

Delta 2 Rocket - Pass Details

Date: 03 August 2024
Orbit: 890 x 1677 km, 26.4° (Epoch: 19 September)

Event Time Altitude Azimuth Distance (km) Brightness Sun altitude
Rises 12:08:34 0° 247° (WSW) 3,665 7.7 -21.6°
Reaches altitude 10° 12:11:03 10° 249° (WSW) 2,791 7.0 -22.2°
Maximum altitude 12:17:51 72° 333° (NNW) 1,196 4.5 -23.7°
Enters shadow 12:23:27 22° 54° (NE) 2,474 5.8 -25.1°
